Location: Audinghen
(50.8518°N, 1.6129°E)
Time: 06:33:47
(UTC+00:00)

Resurs 1-4 Rocket - Pass Details

Date: 07 August 2020
Orbit: 799 x 815 km, 98.6° (Epoch: 23 September)

Event Time Altitude Azimuth Distance (km) Brightness Sun altitude
Rises 01:29:22 0° 16° (NNE) 3,337 6.9 -20.0°
Reaches altitude 10° 01:31:44 10° 19° (NNE) 2,400 5.8 -19.8°
Maximum altitude 01:37:02 70° 103° (ESE) 858 2.2 -19.5°
Enters shadow 01:39:23 33° 178° (S) 1,320 2.7 -19.3°
